timestamp,wind_dir_avg,wind_spd_avg,wind_spd_max_dir,wind_spd_gust,battery_voltage,lat,long
2022-11-21 00:04:00+00:00,78.0,4.39,82.0,6.6,12.33,47.59359,-54.27349
2022-11-21 00:14:00+00:00,76.0,3.73,72.0,6.76,12.33,47.59359,-54.27349
2022-11-21 00:24:00+00:00,75.0,4.07,70.0,7.02,12.33,47.59359,-54.27349
2022-11-21 00:34:00+00:00,85.0,4.45,115.0,6.89,12.33,47.59359,-54.27349
2022-11-21 00:44:00+00:00,86.0,3.41,81.0,5.73,12.33,47.59359,-54.27349
2022-11-21 00:54:00+00:00,315.0,0.01,79.0,0.0,12.33,47.59359,-54.27349
2022-11-21 01:04:00+00:00,315.0,0.01,70.0,0.0,12.33,47.59359,-54.27349
2022-11-21 01:14:00+00:00,315.0,0.01,70.0,0.0,12.33,47.59359,-54.27349
2022-11-21 01:24:00+00:00,315.0,0.01,70.0,0.0,12.33,47.59359,-54.27349
2022-11-21 01:34:00+00:00,315.0,0.01,0.0,0.0,12.33,47.59359,-54.27349
2022-11-21 01:44:00+00:00,315.0,0.01,0.0,0.0,12.33,47.59359,-54.27349
2022-11-21 01:54:00+00:00,315.0,0.01,0.0,0.0,12.33,47.59359,-54.27349
2022-11-21 02:04:00+00:00,193.0,2.28,225.0,3.12,12.33,47.59359,-54.27349
2022-11-21 02:14:00+00:00,229.0,6.8,236.0,8.13,12.33,47.59359,-54.27349
2022-11-21 02:24:00+00:00,206.0,8.88,201.0,10.19,12.33,47.59359,-54.27349
2022-11-21 02:34:00+00:00,208.0,12.25,211.0,14.55,12.33,47.59359,-54.27349
2022-11-21 02:44:00+00:00,215.0,11.73,216.0,13.02,12.33,47.59359,-54.27349
2022-11-21 02:54:00+00:00,229.0,11.71,228.0,15.82,12.33,47.59359,-54.27349
2022-11-21 03:04:00+00:00,237.0,12.19,240.0,13.94,12.33,47.59359,-54.27349
2022-11-21 03:14:01+00:00,249.0,11.02,247.0,13.75,12.25,47.59359,-54.27349
2022-11-21 03:24:01+00:00,243.0,10.98,252.0,13.22,12.25,47.59359,-54.27349
2022-11-21 03:34:01+00:00,245.0,12.76,244.0,13.89,12.25,47.59359,-54.27349
2022-11-21 03:44:01+00:00,242.0,9.39,249.0,10.71,12.25,47.59359,-54.27349
2022-11-21 03:54:01+00:00,245.0,12.08,246.0,13.51,12.25,47.59359,-54.27349
2022-11-21 04:04:01+00:00,253.0,11.39,255.0,14.39,12.25,47.59359,-54.27349
2022-11-21 04:14:00+00:00,253.0,12.11,253.0,15.0,12.25,47.59359,-54.27349
2022-11-21 04:24:00+00:00,260.0,10.29,264.0,14.5,12.25,47.59359,-54.27349
2022-11-21 04:34:00+00:00,255.0,13.65,253.0,15.26,12.25,47.59359,-54.27349
2022-11-21 04:44:00+00:00,255.0,11.47,258.0,14.93,12.25,47.59359,-54.27349
2022-11-21 04:54:00+00:00,253.0,7.53,249.0,8.16,12.25,47.59359,-54.27349
2022-11-21 05:04:00+00:00,248.0,8.32,260.0,12.66,12.25,47.59359,-54.27349
2022-11-21 05:14:01+00:00,245.0,7.82,242.0,8.87,12.25,47.59359,-54.27349
2022-11-21 05:24:01+00:00,226.0,7.22,231.0,8.76,12.25,47.59359,-54.27349
2022-11-21 05:34:01+00:00,249.0,10.27,251.0,13.93,12.25,47.59359,-54.27349
2022-11-21 05:44:01+00:00,242.0,9.81,244.0,14.32,12.25,47.59359,-54.27349
2022-11-21 05:54:01+00:00,235.0,8.42,252.0,13.37,12.25,47.59359,-54.27349
2022-11-21 06:04:01+00:00,245.0,9.69,255.0,14.59,12.25,47.59359,-54.27349
2022-11-21 06:14:00+00:00,236.0,10.78,243.0,14.51,12.17,47.59359,-54.27349
2022-11-21 06:24:00+00:00,241.0,14.98,244.0,16.47,12.17,47.59359,-54.27349
2022-11-21 06:34:00+00:00,232.0,15.09,228.0,18.61,12.17,47.59359,-54.27349
2022-11-21 06:44:00+00:00,242.0,15.96,246.0,17.94,12.17,47.59359,-54.27349
2022-11-21 06:54:00+00:00,249.0,15.71,250.0,19.4,12.17,47.59359,-54.27349
2022-11-21 07:04:00+00:00,256.0,17.12,258.0,20.99,12.17,47.59359,-54.27349
2022-11-21 07:14:00+00:00,257.0,17.77,261.0,23.61,12.17,47.59359,-54.27349
2022-11-21 07:24:00+00:00,260.0,16.71,264.0,23.51,12.17,47.59359,-54.27349
2022-11-21 07:34:00+00:00,254.0,16.93,253.0,24.36,12.17,47.59359,-54.27349
2022-11-21 07:44:00+00:00,252.0,17.17,253.0,20.07,12.17,47.59359,-54.27349
2022-11-21 07:54:00+00:00,246.0,18.08,249.0,20.59,12.17,47.59359,-54.27349
2022-11-21 08:04:00+00:00,247.0,17.62,254.0,21.34,12.17,47.59359,-54.27349
2022-11-21 08:14:01+00:00,252.0,18.95,253.0,23.73,12.17,47.59359,-54.27349
2022-11-21 08:24:01+00:00,256.0,19.16,261.0,22.03,12.17,47.59359,-54.27349
2022-11-21 08:34:01+00:00,246.0,16.66,236.0,19.06,12.17,47.59359,-54.27349
2022-11-21 08:44:01+00:00,249.0,17.0,252.0,20.6,12.17,47.59359,-54.27349
2022-11-21 08:54:01+00:00,242.0,17.1,237.0,19.39,12.17,47.59359,-54.27349
2022-11-21 09:04:01+00:00,243.0,16.26,234.0,19.01,12.17,47.59359,-54.27349
2022-11-21 09:14:00+00:00,257.0,13.99,265.0,16.68,12.17,47.59359,-54.27349
2022-11-21 09:24:00+00:00,315.0,0.01,273.0,0.0,12.17,47.59359,-54.27349
2022-11-21 09:34:00+00:00,253.0,14.75,257.0,17.3,12.17,47.59359,-54.27349
2022-11-21 09:44:00+00:00,250.0,12.56,257.0,21.98,12.17,47.59359,-54.27349
2022-11-21 09:54:00+00:00,315.0,0.01,256.0,0.0,12.17,47.59359,-54.27349
2022-11-21 10:04:00+00:00,315.0,0.01,256.0,0.0,12.17,47.59359,-54.27349
2022-11-21 10:14:01+00:00,247.0,19.29,244.0,24.25,12.17,47.59359,-54.27349
2022-11-21 10:24:01+00:00,256.0,17.24,257.0,21.39,12.17,47.59359,-54.27349
2022-11-21 10:34:01+00:00,315.0,0.01,245.0,0.0,12.17,47.59359,-54.27349
2022-11-21 10:44:01+00:00,315.0,0.01,245.0,0.0,12.17,47.59359,-54.27349
2022-11-21 10:54:01+00:00,315.0,0.01,233.0,0.0,12.17,47.59359,-54.27349
2022-11-21 11:04:01+00:00,241.0,17.98,241.0,23.93,12.17,47.59359,-54.27349
2022-11-21 11:14:00+00:00,249.0,18.04,255.0,22.7,12.17,47.59359,-54.27349
2022-11-21 11:24:00+00:00,257.0,16.48,268.0,18.53,12.17,47.59359,-54.27349
2022-11-21 11:34:00+00:00,246.0,17.52,243.0,20.75,12.17,47.59359,-54.27349
2022-11-21 11:44:00+00:00,247.0,18.01,258.0,21.54,12.17,47.59359,-54.27349
2022-11-21 11:54:00+00:00,248.0,18.17,246.0,20.58,12.17,47.59359,-54.27349
2022-11-21 12:04:00+00:00,240.0,15.79,251.0,20.02,12.17,47.59359,-54.27349
2022-11-21 12:14:00+00:00,246.0,16.0,242.0,18.0,12.25,47.59359,-54.27349
2022-11-21 12:24:00+00:00,244.0,17.26,247.0,20.48,12.25,47.59359,-54.27349
2022-11-21 12:34:00+00:00,252.0,16.76,254.0,19.85,12.25,47.59359,-54.27349
2022-11-21 12:44:00+00:00,253.0,18.27,257.0,22.68,12.25,47.59359,-54.27349
2022-11-21 12:54:00+00:00,249.0,17.87,249.0,21.0,12.25,47.59359,-54.27349
2022-11-21 13:04:00+00:00,266.0,18.59,272.0,26.83,12.25,47.59359,-54.27349
2022-11-21 13:14:01+00:00,258.0,19.7,258.0,24.11,13.68,47.59359,-54.27349
2022-11-21 13:24:01+00:00,260.0,17.95,268.0,25.23,13.68,47.59359,-54.27349
2022-11-21 13:34:01+00:00,263.0,22.15,266.0,25.83,13.68,47.59359,-54.27349
2022-11-21 13:44:01+00:00,263.0,19.16,272.0,24.96,13.68,47.59359,-54.27349
2022-11-21 13:54:01+00:00,259.0,20.64,261.0,25.04,13.68,47.59359,-54.27349
2022-11-21 14:04:01+00:00,255.0,17.23,249.0,23.37,13.68,47.59359,-54.27349
2022-11-21 15:14:00+00:00,271.0,18.62,273.0,24.16,13.13,47.59359,-54.27349
2022-11-21 15:24:00+00:00,259.0,16.04,256.0,18.14,13.13,47.59359,-54.27349
2022-11-21 15:34:00+00:00,262.0,17.5,267.0,21.55,13.13,47.59359,-54.27349
2022-11-21 15:44:00+00:00,269.0,17.14,280.0,19.18,13.13,47.59359,-54.27349
2022-11-21 15:54:00+00:00,267.0,19.12,279.0,24.12,13.13,47.59359,-54.27349
2022-11-21 16:04:00+00:00,276.0,17.11,277.0,18.65,13.13,47.59359,-54.27349
2022-11-21 16:14:00+00:00,276.0,17.52,269.0,21.68,13.68,47.59359,-54.27349
2022-11-21 16:24:00+00:00,284.0,20.98,283.0,25.42,13.68,47.59359,-54.27349
2022-11-21 16:34:00+00:00,279.0,20.49,282.0,25.23,13.68,47.59359,-54.27349
2022-11-21 16:44:00+00:00,279.0,18.55,273.0,25.0,13.68,47.59359,-54.27349
2022-11-21 16:54:00+00:00,280.0,22.0,283.0,26.27,13.68,47.59359,-54.27349
2022-11-21 17:04:00+00:00,278.0,19.0,278.0,25.33,13.68,47.59359,-54.27349
2022-11-21 17:14:00+00:00,279.0,18.82,286.0,24.8,13.6,47.59359,-54.27349
2022-11-21 17:24:00+00:00,281.0,21.45,281.0,26.03,13.6,47.59359,-54.27349
2022-11-21 17:34:00+00:00,282.0,20.65,284.0,25.35,13.6,47.59359,-54.27349
2022-11-21 17:44:00+00:00,279.0,17.91,280.0,22.24,13.6,47.59359,-54.27349
2022-11-21 17:54:00+00:00,285.0,19.87,286.0,25.39,13.6,47.59359,-54.27349
2022-11-21 18:04:00+00:00,284.0,17.5,283.0,19.5,13.6,47.59359,-54.27349
2022-11-21 18:14:00+00:00,279.0,18.8,281.0,24.55,13.76,47.59359,-54.27349
2022-11-21 18:24:00+00:00,287.0,16.7,287.0,19.86,13.76,47.59359,-54.27349
2022-11-21 18:34:00+00:00,287.0,18.26,300.0,21.38,13.76,47.59359,-54.27349
2022-11-21 18:44:00+00:00,292.0,18.93,300.0,21.22,13.76,47.59359,-54.27349
2022-11-21 18:54:00+00:00,283.0,18.69,283.0,23.73,13.76,47.59359,-54.27349
2022-11-21 19:04:00+00:00,291.0,18.72,291.0,22.04,13.76,47.59359,-54.27349
2022-11-21 20:14:00+00:00,301.0,20.65,303.0,22.52,12.89,47.59359,-54.27349
2022-11-21 20:24:00+00:00,297.0,18.0,304.0,21.36,12.89,47.59359,-54.27349
2022-11-21 20:34:00+00:00,298.0,18.51,303.0,23.85,12.89,47.59359,-54.27349
2022-11-21 20:44:00+00:00,298.0,19.45,301.0,21.66,12.89,47.59359,-54.27349
2022-11-21 20:54:00+00:00,305.0,20.97,308.0,23.54,12.89,47.59359,-54.27349
2022-11-21 21:04:00+00:00,295.0,17.73,294.0,21.25,12.89,47.59359,-54.27349
2022-11-21 21:14:00+00:00,298.0,17.35,303.0,20.83,12.49,47.59359,-54.27349
2022-11-21 21:24:00+00:00,298.0,14.99,307.0,20.03,12.49,47.59359,-54.27349
2022-11-21 21:34:00+00:00,294.0,16.28,301.0,20.92,12.49,47.59359,-54.27349
2022-11-21 21:44:00+00:00,302.0,16.26,302.0,20.76,12.49,47.59359,-54.27349
2022-11-21 21:54:00+00:00,292.0,18.55,298.0,20.65,12.49,47.59359,-54.27349
2022-11-21 22:04:00+00:00,295.0,18.45,298.0,23.42,12.49,47.59359,-54.27349
2022-11-21 22:14:00+00:00,298.0,19.38,307.0,21.67,12.41,47.59359,-54.27349
2022-11-21 22:24:00+00:00,298.0,18.44,305.0,21.56,12.41,47.59359,-54.27349
2022-11-21 22:34:00+00:00,295.0,16.45,300.0,20.01,12.41,47.59359,-54.27349
2022-11-21 22:44:00+00:00,300.0,15.65,300.0,20.24,12.41,47.59359,-54.27349
2022-11-21 22:54:00+00:00,297.0,13.65,295.0,18.07,12.41,47.59359,-54.27349
2022-11-21 23:04:00+00:00,297.0,16.57,298.0,19.77,12.41,47.59359,-54.27349
2022-11-21 23:14:00+00:00,292.0,16.62,291.0,18.8,12.41,47.59359,-54.27349
2022-11-21 23:24:00+00:00,296.0,14.88,294.0,18.26,12.41,47.59359,-54.27349
2022-11-21 23:34:00+00:00,296.0,17.73,306.0,21.57,12.41,47.59359,-54.27349
2022-11-21 23:44:00+00:00,298.0,12.84,294.0,16.2,12.41,47.59359,-54.27349
2022-11-21 23:54:00+00:00,296.0,13.09,293.0,18.53,12.41,47.59359,-54.27349
